| time (UTC) | temp F | wind direction | speed MPH | gust MPH | rain 1hr in | rain 24hr in | rain mn in | humidity % | barometer mb |
| 20260505130109 | 47 | 206 | 4.0 | 9.0 | 0.00 | 0.00 | 0.00 | 54 | 1008.3 |
| 20260505124608 | 46 | 282 | 4.0 | 12.0 | 0.00 | 0.00 | 0.00 | 56 | 1008.2 |
| 20260505124048 | 45 | 235 | 5.0 | 12.0 | 0.00 | 0.00 | 0.00 | 56 | 1008.2 |
| 20260505123548 | 45 | 223 | 4.0 | 11.0 | 0.00 | 0.00 | 0.00 | 57 | 1008.1 |
| 20260505123116 | 45 | 240 | 6.0 | 12.0 | 0.00 | 0.00 | 0.00 | 58 | 1008.2 |
| 20260505122550 | 45 | 222 | 7.0 | 12.0 | 0.00 | 0.00 | 0.00 | 57 | 1008.1 |
| 20260505122049 | 45 | 231 | 5.0 | 11.0 | 0.00 | 0.00 | 0.00 | 57 | 1007.9 |
| 20260505121555 | 45 | 227 | 3.0 | 10.0 | 0.00 | 0.00 | 0.00 | 58 | 1007.8 |
| 20260505121050 | 45 | 290 | 2.0 | 10.0 | 0.00 | 0.00 | 0.00 | 57 | 1007.7 |
| 20260505120549 | 44 | 259 | 2.0 | 10.0 | 0.00 | 0.00 | 0.00 | 58 | 1007.6 |
| 20260505120108 | 44 | 225 | 4.0 | 8.0 | 0.00 | 0.00 | 0.00 | 59 | 1007.7 |
| 20260505115549 | 44 | 255 | 4.0 | 7.0 | 0.00 | 0.00 | 0.00 | 60 | 1007.4 |
| 20260505115048 | 43 | 245 | 5.0 | 7.0 | 0.00 | 0.00 | 0.00 | 61 | 1007.2 |
| 20260505114558 | 43 | 222 | 4.0 | 7.0 | 0.00 | 0.00 | 0.00 | 62 | 1006.9 |
| 20260505114049 | 42 | 228 | 2.0 | 4.0 | 0.00 | 0.00 | 0.00 | 65 | 1006.7 |
| 20260505113552 | 41 | 229 | 2.0 | 9.0 | 0.00 | 0.00 | 0.00 | 67 | 1006.7 |
| 20260505113104 | 41 | 266 | 0.0 | 9.0 | 0.00 | 0.00 | 0.00 | 69 | 1006.6 |
| 20260505112549 | 41 | 242 | 0.0 | 1.0 | 0.00 | 0.00 | 0.00 | 70 | 1006.4 |
| 20260505112049 | 40 | 0 | 0.0 | 1.0 | 0.00 | 0.00 | 0.00 | 69 | 1006.1 |
| 20260505111556 | 40 | 242 | 0.0 | 1.0 | 0.00 | 0.00 | 0.00 | 70 | 1006.2 |
| 20260505111050 | 40 | 242 | 0.0 | 1.0 | 0.00 | 0.00 | 0.00 | 70 | 1006.2 |
| 20260505110549 | 39 | 242 | 0.0 | 1.0 | 0.00 | 0.00 | 0.00 | 71 | 1006.3 |
| 20260505102048 | 41 | 242 | 0.0 | 1.0 | 0.00 | 0.00 | 0.00 | 71 | 1006.0 |
| 20260505101555 | 41 | 242 | 1.0 | 1.0 | 0.00 | 0.00 | 0.00 | 71 | 1006.1 |
| 20260505101048 | 41 | 242 | 0.0 | 1.0 | 0.00 | 0.00 | 0.00 | 71 | 1006.0 |
| 20260505100548 | 41 | 0 | 0.0 | 1.0 | 0.00 | 0.00 | 0.00 | 70 | 1006.0 |
| 20260505100050 | 41 | 0 | 0.0 | 1.0 | 0.00 | 0.00 | 0.00 | 68 | 1005.9 |
| 20260505095544 | 41 | 245 | 0.0 | 0.0 | 0.00 | 0.00 | 0.00 | 68 | 1005.9 |
| 20260505095052 | 41 | 0 | 0.0 | 0.0 | 0.00 | 0.00 | 0.00 | 66 | 1005.9 |
| 20260505094601 | 42 | 0 | 0.0 | 0.0 | 0.00 | 0.00 | 0.00 | 65 | 1005.9 |
| 20260505094049 | 42 | 0 | 0.0 | 0.0 | 0.00 | 0.00 | 0.00 | 64 | 1005.8 |
| 20260505093550 | 43 | 0 | 0.0 | 0.0 | 0.00 | 0.00 | 0.00 | 62 | 1005.9 |
| 20260505093056 | 43 | 0 | 0.0 | 0.0 | 0.00 | 0.00 | 0.00 | 62 | 1005.9 |
| 20260505092548 | 43 | 0 | 0.0 | 0.0 | 0.00 | 0.00 | 0.00 | 61 | 1005.9 |
| 20260505092049 | 43 | 0 | 0.0 | 0.0 | 0.00 | 0.00 | 0.00 | 61 | 1006.0 |
| 20260505091551 | 43 | 0 | 0.0 | 0.0 | 0.00 | 0.00 | 0.00 | 61 | 1005.8 |
| 20260505091050 | 44 | 0 | 0.0 | 1.0 | 0.00 | 0.00 | 0.00 | 59 | 1005.8 |
| 20260505090548 | 44 | 0 | 0.0 | 1.0 | 0.00 | 0.00 | 0.00 | 59 | 1005.9 |
| 20260505090058 | 44 | 0 | 0.0 | 1.0 | 0.00 | 0.00 | 0.00 | 59 | 1005.9 |
| 20260505085548 | 44 | 0 | 0.0 | 2.0 | 0.00 | 0.00 | 0.00 | 59 | 1005.8 |
| 20260505085048 | 44 | 0 | 0.0 | 2.0 | 0.00 | 0.00 | 0.00 | 59 | 1005.7 |
| 20260505084600 | 44 | 245 | 0.0 | 2.0 | 0.00 | 0.00 | 0.00 | 59 | 1005.6 |
| 20260505084049 | 44 | 0 | 0.0 | 3.0 | 0.00 | 0.00 | 0.00 | 59 | 1005.5 |
| 20260505083547 | 45 | 245 | 0.0 | 4.0 | 0.00 | 0.00 | 0.00 | 58 | 1005.6 |
| 20260505083106 | 45 | 240 | 0.0 | 4.0 | 0.00 | 0.00 | 0.00 | 58 | 1005.4 |
| 20260505082547 | 45 | 302 | 1.0 | 4.0 | 0.00 | 0.00 | 0.00 | 58 | 1005.3 |
| 20260505082048 | 45 | 255 | 0.0 | 3.0 | 0.00 | 0.00 | 0.00 | 58 | 1004.9 |
| 20260505081553 | 45 | 255 | 0.0 | 3.0 | 0.00 | 0.00 | 0.00 | 57 | 1004.8 |
| 20260505081048 | 45 | 255 | 1.0 | 6.0 | 0.00 | 0.00 | 0.00 | 57 | 1004.8 |
| 20260505080546 | 45 | 253 | 2.0 | 6.0 | 0.00 | 0.00 | 0.00 | 57 | 1004.7 |
| 20260505080056 | 46 | 309 | 3.0 | 6.0 | 0.00 | 0.00 | 0.00 | 56 | 1004.5 |
| 20260505075548 | 46 | 25 | 2.0 | 5.0 | 0.00 | 0.00 | 0.00 | 56 | 1004.4 |
| 20260505075048 | 46 | 321 | 2.0 | 8.0 | 0.00 | 0.00 | 0.00 | 55 | 1004.2 |
| 20260505074556 | 46 | 324 | 4.0 | 8.0 | 0.00 | 0.00 | 0.00 | 55 | 1004.0 |
| 20260505074045 | 47 | 311 | 4.0 | 10.0 | 0.00 | 0.00 | 0.00 | 54 | 1004.0 |
| 20260505073548 | 47 | 339 | 3.0 | 10.0 | 0.00 | 0.00 | 0.00 | 53 | 1004.2 |
| 20260505073056 | 47 | 301 | 3.0 | 11.0 | 0.00 | 0.00 | 0.00 | 52 | 1004.2 |
| 20260505072550 | 47 | 316 | 4.0 | 11.0 | 0.00 | 0.00 | 0.00 | 51 | 1003.9 |
| 20260505072046 | 48 | 281 | 4.0 | 14.0 | 0.00 | 0.00 | 0.00 | 51 | 1003.9 |
| 20260505071554 | 48 | 288 | 4.0 | 14.0 | 0.00 | 0.00 | 0.00 | 51 | 1004.0 |
| 20260505071048 | 48 | 323 | 6.0 | 14.0 | 0.00 | 0.00 | 0.00 | 52 | 1004.0 |
| 20260505070547 | 48 | 338 | 3.0 | 14.0 | 0.00 | 0.00 | 0.00 | 53 | 1004.0 |
| 20260505065548 | 48 | 316 | 5.0 | 12.0 | 0.00 | 0.00 | 0.00 | 54 | 1003.6 |
| 20260505065047 | 48 | 318 | 4.0 | 14.0 | 0.00 | 0.00 | 0.00 | 54 | 1003.5 |
| 20260505064556 | 48 | 25 | 6.0 | 14.0 | 0.00 | 0.00 | 0.00 | 53 | 1003.5 |
| 20260505064048 | 48 | 320 | 2.0 | 13.0 | 0.00 | 0.00 | 0.00 | 52 | 1003.4 |
| 20260505063548 | 48 | 326 | 4.0 | 10.0 | 0.00 | 0.00 | 0.00 | 52 | 1003.3 |
| 20260505063052 | 49 | 307 | 4.0 | 9.0 | 0.00 | 0.00 | 0.00 | 51 | 1003.3 |
| 20260505062548 | 49 | 295 | 3.0 | 9.0 | 0.00 | 0.00 | 0.00 | 51 | 1003.2 |
| 20260505062052 | 49 | 316 | 3.0 | 8.0 | 0.00 | 0.00 | 0.00 | 50 | 1003.2 |
| 20260505061613 | 49 | 330 | 4.0 | 15.0 | 0.00 | 0.00 | 0.00 | 50 | 1003.3 |
| 20260505061049 | 49 | 266 | 6.0 | 15.0 | 0.00 | 0.00 | 0.00 | 49 | 1003.2 |
| 20260505060548 | 50 | 316 | 5.0 | 15.0 | 0.00 | 0.00 | 0.00 | 49 | 1003.2 |
| 20260505060056 | 50 | 302 | 5.0 | 14.0 | 0.00 | 0.00 | 0.00 | 50 | 1003.3 |
| 20260505055550 | 50 | 252 | 4.0 | 14.0 | 0.00 | 0.00 | 0.00 | 50 | 1003.3 |
| 20260505055047 | 50 | 288 | 3.0 | 14.0 | 0.00 | 0.00 | 0.00 | 50 | 1003.3 |
| 20260505054555 | 50 | 321 | 5.0 | 14.0 | 0.00 | 0.00 | 0.00 | 50 | 1003.2 |
| 20260505054048 | 51 | 279 | 7.0 | 12.0 | 0.00 | 0.00 | 0.00 | 49 | 1003.1 |
| 20260505053548 | 51 | 323 | 5.0 | 12.0 | 0.00 | 0.00 | 0.00 | 50 | 1003.0 |
| 20260505053056 | 51 | 295 | 4.0 | 11.0 | 0.00 | 0.00 | 0.00 | 51 | 1003.0 |
| 20260505052549 | 51 | 328 | 5.0 | 13.0 | 0.00 | 0.00 | 0.00 | 51 | 1002.9 |
| 20260505052047 | 52 | 321 | 5.0 | 17.0 | 0.00 | 0.00 | 0.00 | 51 | 1002.9 |
| 20260505051551 | 52 | 292 | 5.0 | 17.0 | 0.00 | 0.00 | 0.00 | 51 | 1002.8 |
| 20260505051048 | 52 | 300 | 7.0 | 14.0 | 0.00 | 0.00 | 0.00 | 51 | 1002.7 |
| 20260505050548 | 52 | 317 | 5.0 | 14.0 | 0.00 | 0.00 | 0.00 | 52 | 1002.6 |
| 20260505041603 | 55 | 252 | 3.0 | 6.0 | 0.00 | 0.00 | 0.00 | 48 | 1001.4 |
| 20260505041048 | 55 | 279 | 3.0 | 7.0 | 0.00 | 0.00 | 0.00 | 48 | 1001.4 |
| 20260505040548 | 55 | 295 | 4.0 | 10.0 | 0.00 | 0.00 | 0.00 | 48 | 1001.4 |
| 20260505035549 | 55 | 271 | 5.0 | 10.0 | 0.00 | 0.00 | 0.00 | 47 | 1001.4 |
| 20260505035052 | 56 | 262 | 4.0 | 8.0 | 0.00 | 0.00 | 0.00 | 47 | 1001.3 |
| 20260505034556 | 56 | 269 | 3.0 | 7.0 | 0.00 | 0.00 | 0.00 | 46 | 1001.3 |
| 20260505034049 | 56 | 301 | 4.0 | 7.0 | 0.00 | 0.00 | 0.00 | 46 | 1001.3 |
| 20260505033549 | 56 | 274 | 3.0 | 6.0 | 0.00 | 0.00 | 0.00 | 45 | 1001.1 |
| 20260505033100 | 56 | 282 | 2.0 | 5.0 | 0.00 | 0.00 | 0.00 | 45 | 1001.0 |
| 20260505032549 | 56 | 264 | 1.0 | 5.0 | 0.00 | 0.00 | 0.00 | 45 | 1001.1 |
| 20260505032051 | 57 | 248 | 2.0 | 5.0 | 0.00 | 0.00 | 0.00 | 44 | 1001.1 |
| 20260505031556 | 57 | 279 | 2.0 | 7.0 | 0.00 | 0.00 | 0.00 | 44 | 1000.9 |
| 20260505031048 | 57 | 260 | 2.0 | 10.0 | 0.00 | 0.00 | 0.00 | 43 | 1000.9 |
| 20260505030553 | 58 | 271 | 4.0 | 10.0 | 0.00 | 0.00 | 0.00 | 43 | 1000.8 |
| 20260505030055 | 58 | 252 | 4.0 | 9.0 | 0.00 | 0.00 | 0.00 | 42 | 1000.8 |
| 20260505025548 | 58 | 285 | 4.0 | 9.0 | 0.00 | 0.00 | 0.00 | 42 | 1000.6 |
| 20260505025048 | 58 | 265 | 4.0 | 9.0 | 0.00 | 0.00 | 0.00 | 41 | 1000.7 |
| 20260505024555 | 58 | 220 | 4.0 | 9.0 | 0.00 | 0.00 | 0.00 | 41 | 1000.6 |
| 20260505024048 | 59 | 274 | 3.0 | 12.0 | 0.00 | 0.00 | 0.00 | 40 | 1000.4 |
| 20260505023549 | 59 | 274 | 6.0 | 12.0 | 0.00 | 0.00 | 0.00 | 39 | 1000.2 |
| 20260505023054 | 59 | 279 | 7.0 | 12.0 | 0.00 | 0.00 | 0.00 | 38 | 999.9 |
| 20260505022549 | 59 | 219 | 6.0 | 11.0 | 0.00 | 0.00 | 0.00 | 38 | 999.6 |
| 20260505022052 | 59 | 259 | 5.0 | 10.0 | 0.00 | 0.00 | 0.00 | 38 | 999.5 |
| 20260505021556 | 59 | 276 | 5.0 | 10.0 | 0.00 | 0.00 | 0.00 | 39 | 999.4 |
| 20260505021048 | 59 | 254 | 4.0 | 7.0 | 0.00 | 0.00 | 0.00 | 40 | 999.2 |
| 20260505020549 | 59 | 27 | 1.0 | 10.0 | 0.00 | 0.00 | 0.00 | 42 | 998.8 |
| 20260505020053 | 60 | 272 | 3.0 | 10.0 | 0.00 | 0.00 | 0.00 | 42 | 998.6 |
| 20260505015549 | 60 | 290 | 4.0 | 10.0 | 0.00 | 0.00 | 0.00 | 42 | 998.9 |
| 20260505015049 | 60 | 285 | 3.0 | 6.0 | 0.00 | 0.00 | 0.00 | 44 | 999.0 |
| 20260505014553 | 60 | 278 | 2.0 | 5.0 | 0.00 | 0.00 | 0.00 | 43 | 999.0 |
| 20260505014049 | 61 | 275 | 3.0 | 7.0 | 0.00 | 0.00 | 0.00 | 43 | 999.0 |
| 20260505013548 | 61 | 271 | 5.0 | 7.0 | 0.00 | 0.00 | 0.00 | 42 | 999.0 |
| 20260505013054 | 61 | 300 | 3.0 | 7.0 | 0.00 | 0.00 | 0.00 | 42 | 998.9 |
| 20260505012548 | 62 | 259 | 3.0 | 8.0 | 0.00 | 0.00 | 0.00 | 41 | 998.8 |
| 20260505012048 | 62 | 261 | 4.0 | 8.0 | 0.00 | 0.00 | 0.00 | 40 | 998.7 |
| 20260505011552 | 62 | 269 | 5.0 | 12.0 | 0.00 | 0.00 | 0.00 | 40 | 998.7 |
| 20260505011051 | 63 | 251 | 5.0 | 16.0 | 0.00 | 0.00 | 0.00 | 39 | 998.5 |
| 20260505010549 | 63 | 253 | 4.0 | 16.0 | 0.00 | 0.00 | 0.00 | 39 | 998.4 |
| 20260505005549 | 63 | 271 | 6.0 | 13.0 | 0.00 | 0.00 | 0.00 | 39 | 998.1 |
| 20260505005048 | 64 | 53 | 7.0 | 15.0 | 0.00 | 0.00 | 0.00 | 38 | 998.0 |
| 20260505004550 | 64 | 316 | 7.0 | 15.0 | 0.00 | 0.00 | 0.00 | 38 | 997.7 |
| 20260505004050 | 64 | 274 | 5.0 | 11.0 | 0.00 | 0.00 | 0.00 | 39 | 997.6 |
| 20260505003550 | 65 | 221 | 4.0 | 11.0 | 0.00 | 0.00 | 0.00 | 40 | 997.5 |
| 20260505003052 | 66 | 276 | 4.0 | 13.0 | 0.00 | 0.00 | 0.00 | 38 | 997.5 |
| 20260505002549 | 66 | 266 | 4.0 | 13.0 | 0.00 | 0.00 | 0.00 | 38 | 997.4 |
| 20260505002050 | 67 | 269 | 7.0 | 13.0 | 0.00 | 0.00 | 0.00 | 38 | 997.3 |
| 20260505001554 | 67 | 277 | 5.0 | 10.0 | 0.00 | 0.00 | 0.00 | 39 | 997.2 |
| 20260505001049 | 68 | 256 | 6.0 | 14.0 | 0.00 | 0.00 | 0.00 | 38 | 997.1 |
| 20260505000549 | 68 | 285 | 6.0 | 14.0 | 0.00 | 0.00 | 0.00 | 38 | 997.0 |
| 20260505000100 | 69 | 254 | 8.0 | 14.0 | 0.00 | 0.00 | 0.00 | 38 | 996.9 |
| 20260504235549 | 69 | 283 | 6.0 | 15.0 | 0.00 | 0.00 | 0.00 | 38 | 996.9 |
| 20260504235050 | 70 | 267 | 6.0 | 15.0 | 0.00 | 0.00 | 0.00 | 38 | 996.7 |
| 20260504234603 | 71 | 241 | 9.0 | 19.0 | 0.00 | 0.00 | 0.00 | 37 | 996.6 |
| 20260504234053 | 71 | 226 | 12.0 | 19.0 | 0.00 | 0.00 | 0.00 | 37 | 996.6 |
| 20260504233549 | 72 | 253 | 8.0 | 17.0 | 0.00 | 0.00 | 0.00 | 39 | 996.5 |
| 20260504233055 | 72 | 269 | 8.0 | 17.0 | 0.00 | 0.00 | 0.00 | 39 | 996.4 |
| 20260504232549 | 73 | 288 | 7.0 | 14.0 | 0.00 | 0.00 | 0.00 | 39 | 996.3 |
| 20260504232049 | 73 | 276 | 7.0 | 14.0 | 0.00 | 0.00 | 0.00 | 40 | 996.3 |
| 20260504231556 | 73 | 273 | 6.0 | 17.0 | 0.00 | 0.00 | 0.00 | 40 | 996.2 |
| 20260504231048 | 73 | 244 | 10.0 | 17.0 | 0.00 | 0.00 | 0.00 | 39 | 996.2 |
| 20260504230549 | 74 | 274 | 6.0 | 13.0 | 0.00 | 0.00 | 0.00 | 39 | 996.1 |
| 20260504230056 | 74 | 270 | 7.0 | 12.0 | 0.00 | 0.00 | 0.00 | 40 | 996.1 |
| 20260504225549 | 74 | 243 | 4.0 | 11.0 | 0.00 | 0.00 | 0.00 | 40 | 996.1 |
| 20260504225054 | 74 | 288 | 5.0 | 15.0 | 0.00 | 0.00 | 0.00 | 40 | 996.0 |
| 20260504224556 | 75 | 240 | 7.0 | 15.0 | 0.00 | 0.00 | 0.00 | 40 | 996.0 |
| 20260504224049 | 76 | 262 | 7.0 | 24.0 | 0.00 | 0.00 | 0.00 | 38 | 996.0 |
| 20260504223549 | 77 | 243 | 10.0 | 24.0 | 0.00 | 0.00 | 0.00 | 39 | 995.8 |
| 20260504223055 | 77 | 233 | 10.0 | 15.0 | 0.00 | 0.00 | 0.00 | 38 | 995.5 |
| 20260504222549 | 77 | 236 | 9.0 | 16.0 | 0.00 | 0.00 | 0.00 | 38 | 995.5 |
| 20260504222054 | 77 | 284 | 9.0 | 17.0 | 0.00 | 0.00 | 0.00 | 38 | 995.5 |
| 20260504221552 | 77 | 322 | 10.0 | 24.0 | 0.00 | 0.00 | 0.00 | 39 | 995.4 |
| 20260504221049 | 77 | 254 | 12.0 | 28.0 | 0.00 | 0.00 | 0.00 | 38 | 995.3 |
| 20260504220544 | 77 | 228 | 16.0 | 28.0 | 0.00 | 0.00 | 0.00 | 35 | 995.2 |
| 20260504220058 | 78 | 240 | 15.0 | 27.0 | 0.00 | 0.00 | 0.00 | 34 | 995.0 |
| 20260504215547 | 78 | 243 | 11.0 | 19.0 | 0.00 | 0.00 | 0.00 | 36 | 995.2 |
| 20260504215049 | 78 | 251 | 12.0 | 29.0 | 0.00 | 0.00 | 0.00 | 35 | 995.0 |
| 20260504214551 | 77 | 223 | 12.0 | 29.0 | 0.00 | 0.00 | 0.00 | 35 | 995.1 |
| 20260504214048 | 77 | 233 | 17.0 | 29.0 | 0.00 | 0.00 | 0.00 | 34 | 995.1 |
| 20260504213547 | 77 | 248 | 14.0 | 30.0 | 0.00 | 0.00 | 0.00 | 36 | 995.0 |
| 20260504213107 | 77 | 251 | 16.0 | 30.0 | 0.00 | 0.00 | 0.00 | 36 | 995.1 |
| 20260504212548 | 77 | 232 | 12.0 | 24.0 | 0.00 | 0.00 | 0.00 | 35 | 995.2 |
| 20260504212048 | 76 | 236 | 7.0 | 15.0 | 0.00 | 0.00 | 0.00 | 40 | 995.2 |
| 20260504211552 | 75 | 245 | 2.0 | 10.0 | 0.00 | 0.00 | 0.00 | 46 | 995.2 |
| 20260504211048 | 75 | 269 | 3.0 | 19.0 | 0.00 | 0.00 | 0.00 | 44 | 995.3 |
| 20260504210551 | 75 | 264 | 7.0 | 22.0 | 0.00 | 0.00 | 0.00 | 43 | 995.4 |
| 20260504210053 | 75 | 266 | 10.0 | 24.0 | 0.00 | 0.00 | 0.00 | 40 | 995.4 |
| 20260504205547 | 76 | 244 | 12.0 | 24.0 | 0.00 | 0.00 | 0.00 | 36 | 995.6 |
| 20260504205048 | 76 | 240 | 12.0 | 24.0 | 0.00 | 0.00 | 0.00 | 34 | 995.6 |
| 20260504204600 | 76 | 223 | 15.0 | 24.0 | 0.00 | 0.00 | 0.00 | 35 | 995.6 |
| 20260504204045 | 76 | 240 | 9.0 | 21.0 | 0.00 | 0.00 | 0.00 | 35 | 995.6 |
| 20260504203548 | 77 | 243 | 11.0 | 22.0 | 0.00 | 0.00 | 0.00 | 35 | 995.6 |
| 20260504203050 | 77 | 231 | 14.0 | 22.0 | 0.00 | 0.00 | 0.00 | 36 | 995.7 |
| 20260504202548 | 77 | 252 | 12.0 | 24.0 | 0.00 | 0.00 | 0.00 | 35 | 995.7 |
| 20260504202048 | 77 | 246 | 7.0 | 24.0 | 0.00 | 0.00 | 0.00 | 37 | 995.8 |
| 20260504201557 | 77 | 221 | 15.0 | 24.0 | 0.00 | 0.00 | 0.00 | 35 | 995.9 |
| 20260504201047 | 77 | 223 | 13.0 | 24.0 | 0.00 | 0.00 | 0.00 | 36 | 995.9 |
| 20260504200547 | 77 | 222 | 13.0 | 20.0 | 0.00 | 0.00 | 0.00 | 38 | 995.9 |
| 20260504200054 | 77 | 225 | 15.0 | 27.0 | 0.00 | 0.00 | 0.00 | 37 | 996.0 |
| 20260504195548 | 77 | 237 | 14.0 | 27.0 | 0.00 | 0.00 | 0.00 | 37 | 996.0 |
| 20260504195048 | 76 | 231 | 17.0 | 27.0 | 0.00 | 0.00 | 0.00 | 38 | 996.0 |
| 20260504194556 | 76 | 242 | 16.0 | 27.0 | 0.00 | 0.00 | 0.00 | 38 | 996.2 |
| 20260504194048 | 76 | 244 | 14.0 | 23.0 | 0.00 | 0.00 | 0.00 | 38 | 996.1 |
| 20260504193548 | 75 | 238 | 13.0 | 24.0 | 0.00 | 0.00 | 0.00 | 39 | 996.1 |
| 20260504193103 | 75 | 244 | 13.0 | 24.0 | 0.00 | 0.00 | 0.00 | 38 | 996.2 |
| 20260504192548 | 75 | 246 | 13.0 | 24.0 | 0.00 | 0.00 | 0.00 | 38 | 996.3 |
| 20260504192050 | 75 | 225 | 17.0 | 27.0 | 0.00 | 0.00 | 0.00 | 38 | 996.3 |
| 20260504191553 | 76 | 244 | 14.0 | 27.0 | 0.00 | 0.00 | 0.00 | 39 | 996.3 |
| 20260504191047 | 76 | 234 | 13.0 | 26.0 | 0.00 | 0.00 | 0.00 | 39 | 996.3 |
| 20260504190547 | 75 | 260 | 14.0 | 28.0 | 0.00 | 0.00 | 0.00 | 38 | 996.3 |
| 20260504190059 | 75 | 232 | 16.0 | 28.0 | 0.00 | 0.00 | 0.00 | 38 | 996.5 |
| 20260504185547 | 75 | 231 | 16.0 | 27.0 | 0.00 | 0.00 | 0.00 | 38 | 996.6 |
| 20260504185048 | 75 | 233 | 11.0 | 27.0 | 0.00 | 0.00 | 0.00 | 39 | 996.7 |
| 20260504184550 | 75 | 243 | 17.0 | 30.0 | 0.00 | 0.00 | 0.00 | 38 | 996.7 |
| 20260504184048 | 76 | 241 | 19.0 | 30.0 | 0.00 | 0.00 | 0.00 | 38 | 996.7 |
| 20260504183547 | 76 | 215 | 15.0 | 30.0 | 0.00 | 0.00 | 0.00 | 38 | 996.6 |
| 20260504183100 | 75 | 255 | 18.0 | 30.0 | 0.00 | 0.00 | 0.00 | 37 | 996.7 |
| 20260504182548 | 76 | 245 | 15.0 | 27.0 | 0.00 | 0.00 | 0.00 | 37 | 996.7 |
| 20260504182048 | 75 | 226 | 14.0 | 33.0 | 0.00 | 0.00 | 0.00 | 37 | 996.5 |
| 20260504181558 | 75 | 213 | 20.0 | 33.0 | 0.00 | 0.00 | 0.00 | 36 | 996.7 |
| 20260504181048 | 75 | 259 | 17.0 | 29.0 | 0.00 | 0.00 | 0.00 | 37 | 996.7 |
| 20260504180548 | 75 | 226 | 17.0 | 29.0 | 0.00 | 0.00 | 0.00 | 35 | 996.8 |
| 20260504180130 | 75 | 193 | 13.0 | 33.0 | 0.00 | 0.00 | 0.00 | 36 | 996.7 |
| 20260504175547 | 75 | 236 | 16.0 | 33.0 | 0.00 | 0.00 | 0.00 | 36 | 996.8 |
| 20260504175047 | 75 | 252 | 15.0 | 24.0 | 0.00 | 0.00 | 0.00 | 36 | 996.7 |
| 20260504174556 | 74 | 216 | 14.0 | 28.0 | 0.00 | 0.00 | 0.00 | 37 | 996.7 |
| 20260504174047 | 74 | 213 | 16.0 | 29.0 | 0.00 | 0.00 | 0.00 | 37 | 996.7 |
| 20260504173544 | 74 | 212 | 14.0 | 29.0 | 0.00 | 0.00 | 0.00 | 36 | 996.7 |
| 20260504173058 | 74 | 226 | 20.0 | 29.0 | 0.00 | 0.00 | 0.00 | 35 | 996.8 |
| 20260504172544 | 74 | 243 | 15.0 | 29.0 | 0.00 | 0.00 | 0.00 | 35 | 996.7 |
| 20260504172047 | 74 | 222 | 14.0 | 27.0 | 0.00 | 0.00 | 0.00 | 35 | 996.8 |
| 20260504171554 | 74 | 242 | 13.0 | 25.0 | 0.00 | 0.00 | 0.00 | 36 | 996.7 |
| 20260504171049 | 74 | 250 | 15.0 | 25.0 | 0.00 | 0.00 | 0.00 | 36 | 996.8 |
| 20260504170548 | 74 | 189 | 15.0 | 25.0 | 0.00 | 0.00 | 0.00 | 36 | 996.9 |
| 20260504151049 | 69 | 229 | 13.0 | 25.0 | 0.00 | 0.00 | 0.00 | 40 | 998.4 |
| 20260504150549 | 69 | 226 | 10.0 | 21.0 | 0.00 | 0.00 | 0.00 | 41 | 998.4 |
| 20260504141048 | 65 | 192 | 11.0 | 21.0 | 0.00 | 0.00 | 0.00 | 44 | 999.3 |
| 20260504140549 | 65 | 226 | 14.0 | 19.0 | 0.00 | 0.00 | 0.00 | 43 | 999.3 |